Year,Month,Day,Hour,Minute,Value (Times are PST for barometer in hPa)
2012,12,17,00,00,980.85
2012,12,17,00,01,980.91
2012,12,17,00,02,980.91
2012,12,17,00,03,980.95
2012,12,17,00,04,980.97
2012,12,17,00,05,980.92
2012,12,17,00,06,980.88
2012,12,17,00,07,980.84
2012,12,17,00,08,980.83
2012,12,17,00,09,980.88
2012,12,17,00,10,980.88
2012,12,17,00,11,980.87
2012,12,17,00,12,980.84
2012,12,17,00,13,980.83
2012,12,17,00,14,980.83
2012,12,17,00,15,980.83
2012,12,17,00,16,980.83
2012,12,17,00,17,980.81
2012,12,17,00,18,980.80
2012,12,17,00,19,980.82
2012,12,17,00,20,980.83
2012,12,17,00,21,980.83
2012,12,17,00,22,980.86
2012,12,17,00,23,980.87
2012,12,17,00,24,980.87
2012,12,17,00,25,980.87
2012,12,17,00,26,980.84
2012,12,17,00,27,980.86
2012,12,17,00,28,980.87
2012,12,17,00,29,980.84
2012,12,17,00,30,980.83
2012,12,17,00,31,980.81
2012,12,17,00,32,980.85
2012,12,17,00,33,980.84
2012,12,17,00,34,980.83
2012,12,17,00,35,980.86
2012,12,17,00,36,980.87
2012,12,17,00,37,980.87
2012,12,17,00,38,980.82
2012,12,17,00,39,980.78
2012,12,17,00,40,980.74
2012,12,17,00,41,980.71
2012,12,17,00,42,980.67
2012,12,17,00,43,980.69
2012,12,17,00,44,980.72
2012,12,17,00,45,980.76
2012,12,17,00,46,980.84
2012,12,17,00,47,980.87
2012,12,17,00,48,980.87
2012,12,17,00,49,980.87
2012,12,17,00,50,980.92
2012,12,17,00,51,980.89
2012,12,17,00,52,980.87
2012,12,17,00,53,980.87
2012,12,17,00,54,980.87
2012,12,17,00,55,980.87
2012,12,17,00,56,980.82
2012,12,17,00,57,980.78
2012,12,17,00,58,980.77
2012,12,17,00,59,980.77
2012,12,17,01,00,980.77
2012,12,17,01,01,980.77
2012,12,17,01,02,980.79
2012,12,17,01,03,980.80
2012,12,17,01,04,980.82
2012,12,17,01,05,980.83
2012,12,17,01,06,980.83
2012,12,17,01,07,980.83
2012,12,17,01,08,980.83
2012,12,17,01,09,980.83
2012,12,17,01,10,980.83
2012,12,17,01,11,980.88
2012,12,17,01,12,980.90
2012,12,17,01,13,980.88
2012,12,17,01,14,980.89
2012,12,17,01,15,980.90
2012,12,17,01,16,980.90
2012,12,17,01,17,980.90
2012,12,17,01,18,980.93
2012,12,17,01,19,980.91
2012,12,17,01,20,980.90
2012,12,17,01,21,980.95
2012,12,17,01,22,980.97
2012,12,17,01,23,980.95
2012,12,17,01,24,980.96
2012,12,17,01,25,980.99
2012,12,17,01,26,981.00
2012,12,17,01,27,981.00
2012,12,17,01,28,981.00
2012,12,17,01,29,981.00
2012,12,17,01,30,981.00
2012,12,17,01,31,981.00
2012,12,17,01,32,981.00
2012,12,17,01,33,981.00
2012,12,17,01,34,981.00
2012,12,17,01,35,981.03
2012,12,17,01,36,981.04
2012,12,17,01,37,981.04
2012,12,17,01,38,981.04
2012,12,17,01,39,981.04
2012,12,17,01,40,981.06
2012,12,17,01,41,981.05
2012,12,17,01,42,981.01
2012,12,17,01,43,981.00
2012,12,17,01,44,981.03
2012,12,17,01,45,981.04
2012,12,17,01,46,981.08
2012,12,17,01,47,981.10
2012,12,17,01,48,981.10
2012,12,17,01,49,981.13
2012,12,17,01,50,981.11
2012,12,17,01,51,981.08
2012,12,17,01,52,981.09
2012,12,17,01,53,981.10
2012,12,17,01,54,981.10
2012,12,17,01,55,981.13
2012,12,17,01,56,981.14
2012,12,17,01,57,981.14
2012,12,17,01,58,981.19
2012,12,17,01,59,981.21
2012,12,17,02,00,981.21
2012,12,17,02,01,981.23
2012,12,17,02,02,981.29
2012,12,17,02,03,981.26
2012,12,17,02,04,981.31
2012,12,17,02,05,981.32
2012,12,17,02,06,981.33
2012,12,17,02,07,981.32
2012,12,17,02,08,981.33
2012,12,17,02,09,981.37
2012,12,17,02,10,981.40
2012,12,17,02,11,981.43
2012,12,17,02,12,981.44
2012,12,17,02,13,981.47
2012,12,17,02,14,981.48
2012,12,17,02,15,981.50
2012,12,17,02,16,981.54
2012,12,17,02,17,981.55
2012,12,17,02,18,981.57
2012,12,17,02,19,981.60
2012,12,17,02,20,981.59
2012,12,17,02,21,981.58
2012,12,17,02,22,981.63
2012,12,17,02,23,981.67
2012,12,17,02,24,981.66
2012,12,17,02,25,981.65
2012,12,17,02,26,981.69
2012,12,17,02,27,981.74
2012,12,17,02,28,981.75
2012,12,17,02,29,981.80
2012,12,17,02,30,981.84
2012,12,17,02,31,981.85
2012,12,17,02,32,981.87
2012,12,17,02,33,981.91
2012,12,17,02,34,981.89
2012,12,17,02,35,981.91
2012,12,17,02,36,981.94
2012,12,17,02,37,981.98
2012,12,17,02,38,982.01
2012,12,17,02,39,982.02
2012,12,17,02,40,982.04
2012,12,17,02,41,982.05
2012,12,17,02,42,982.10
2012,12,17,02,43,982.12
2012,12,17,02,44,982.14
2012,12,17,02,45,982.25
2012,12,17,02,46,982.29
2012,12,17,02,47,982.29
2012,12,17,02,48,982.29
2012,12,17,02,49,982.27
2012,12,17,02,50,982.26
2012,12,17,02,51,982.28
2012,12,17,02,52,982.27
2012,12,17,02,53,982.23
2012,12,17,02,54,982.22
2012,12,17,02,55,982.22
2012,12,17,02,56,982.29
2012,12,17,02,57,982.37
2012,12,17,02,58,982.39
2012,12,17,02,59,982.42
2012,12,17,03,00,982.40
2012,12,17,03,01,982.37
2012,12,17,03,02,982.38
2012,12,17,03,06,982.47
2012,12,17,03,07,982.46
2012,12,17,03,08,982.48
2012,12,17,03,09,982.52
2012,12,17,03,10,982.55
2012,12,17,03,11,982.58
2012,12,17,03,12,982.57
2012,12,17,03,13,982.64
2012,12,17,03,14,982.64
2012,12,17,03,15,982.63
2012,12,17,03,16,982.69
2012,12,17,03,17,982.72
2012,12,17,03,18,982.75
2012,12,17,03,19,982.76
2012,12,17,03,20,982.76
2012,12,17,03,21,982.76
2012,12,17,03,22,982.82
2012,12,17,03,23,982.83
2012,12,17,03,24,982.83
2012,12,17,03,25,982.86
2012,12,17,03,26,982.87
2012,12,17,03,27,982.89
2012,12,17,03,28,982.92
2012,12,17,03,29,982.93
2012,12,17,03,30,982.99
2012,12,17,03,31,982.98
2012,12,17,03,32,982.99
2012,12,17,03,33,983.03
2012,12,17,03,34,983.06
2012,12,17,03,35,983.09
2012,12,17,03,36,983.13
2012,12,17,03,37,983.11
2012,12,17,03,38,983.18
2012,12,17,03,39,983.20
2012,12,17,03,40,983.23
2012,12,17,03,41,983.30
2012,12,17,03,42,983.25
2012,12,17,03,43,983.26
2012,12,17,03,44,983.30
2012,12,17,03,45,983.36
2012,12,17,03,46,983.35
2012,12,17,03,47,983.34
2012,12,17,03,48,983.32
2012,12,17,03,49,983.36
2012,12,17,03,50,983.37
2012,12,17,03,51,983.40
2012,12,17,03,52,983.47
2012,12,17,03,53,983.45
2012,12,17,03,54,983.47
2012,12,17,03,55,983.50
2012,12,17,03,56,983.53
2012,12,17,03,57,983.54
2012,12,17,03,58,983.54
2012,12,17,03,59,983.57
2012,12,17,04,00,983.63
2012,12,17,04,01,983.64
2012,12,17,04,02,983.67
2012,12,17,04,03,983.70
2012,12,17,04,04,983.71
2012,12,17,04,05,983.71
2012,12,17,04,06,983.74
2012,12,17,04,07,983.75
2012,12,17,04,08,983.77
2012,12,17,04,09,983.80
2012,12,17,04,10,983.84
2012,12,17,04,11,983.82
2012,12,17,04,12,983.87
2012,12,17,04,13,983.94
2012,12,17,04,14,983.92
2012,12,17,04,15,983.97
2012,12,17,04,16,983.96
2012,12,17,04,17,983.97
2012,12,17,04,18,984.01
2012,12,17,04,19,984.04
2012,12,17,04,20,984.03
2012,12,17,04,21,984.07
2012,12,17,04,22,984.11
2012,12,17,04,23,984.12
2012,12,17,04,24,984.09
2012,12,17,04,25,984.11
2012,12,17,04,26,984.20
2012,12,17,04,27,984.20
2012,12,17,04,28,984.21
2012,12,17,04,29,984.22
2012,12,17,04,30,984.28
2012,12,17,04,31,984.31
2012,12,17,04,32,984.30
2012,12,17,04,33,984.31
2012,12,17,04,34,984.32
2012,12,17,04,35,984.38
2012,12,17,04,36,984.33
2012,12,17,04,37,984.38
2012,12,17,04,38,984.45
2012,12,17,04,39,984.43
2012,12,17,04,40,984.45
2012,12,17,04,41,984.51
2012,12,17,04,42,984.47
2012,12,17,04,43,984.56
2012,12,17,04,44,984.57
2012,12,17,04,45,984.64
2012,12,17,04,46,984.66
2012,12,17,04,47,984.68
2012,12,17,04,48,984.72
2012,12,17,04,49,984.75
2012,12,17,04,50,984.82
2012,12,17,04,51,984.85
2012,12,17,04,52,984.86
2012,12,17,04,53,984.89
2012,12,17,04,54,984.90
2012,12,17,04,55,984.90
2012,12,17,04,56,984.90
2012,12,17,04,57,984.98
2012,12,17,04,58,984.98
2012,12,17,04,59,985.05
2012,12,17,05,00,985.09
2012,12,17,05,01,985.12
2012,12,17,05,02,985.19
2012,12,17,05,03,985.20
2012,12,17,05,04,985.25
2012,12,17,05,05,985.27
2012,12,17,05,06,985.29
2012,12,17,05,07,985.30
2012,12,17,05,08,985.35
2012,12,17,05,09,985.40
2012,12,17,05,10,985.43
2012,12,17,05,11,985.46
2012,12,17,05,12,985.50
2012,12,17,05,13,985.51
2012,12,17,05,14,985.53
2012,12,17,05,15,985.56
2012,12,17,05,16,985.57
2012,12,17,05,17,985.55
2012,12,17,05,18,985.62
2012,12,17,05,19,985.67
2012,12,17,05,20,985.70
2012,12,17,05,21,985.76
2012,12,17,05,22,985.80
2012,12,17,05,23,985.79
2012,12,17,05,24,985.78
2012,12,17,05,25,985.86
2012,12,17,05,26,985.86
2012,12,17,05,27,985.90
2012,12,17,05,28,985.94
2012,12,17,05,29,986.01
2012,12,17,05,30,986.04
2012,12,17,05,31,986.11
2012,12,17,05,32,986.12
2012,12,17,05,33,986.12
2012,12,17,05,34,986.14
2012,12,17,05,35,986.23
2012,12,17,05,36,986.28
2012,12,17,05,37,986.26
2012,12,17,05,38,986.33
2012,12,17,05,39,986.35
2012,12,17,05,40,986.38
2012,12,17,05,41,986.45
2012,12,17,05,42,986.43
2012,12,17,05,43,986.48
2012,12,17,05,44,986.51
2012,12,17,05,45,986.47
2012,12,17,05,46,986.53
2012,12,17,05,47,986.58
2012,12,17,05,48,986.59
2012,12,17,05,49,986.65
2012,12,17,05,50,986.66
2012,12,17,05,51,986.74
2012,12,17,05,52,986.78
2012,12,17,05,53,986.85
2012,12,17,05,54,986.89
2012,12,17,05,55,986.92
2012,12,17,05,56,986.95
2012,12,17,05,57,987.02
2012,12,17,05,58,987.03
2012,12,17,05,59,987.09
2012,12,17,06,00,987.12
2012,12,17,06,01,987.11
2012,12,17,06,02,987.10
2012,12,17,06,03,987.18
2012,12,17,06,04,987.26
2012,12,17,06,05,987.21
2012,12,17,06,06,987.26
2012,12,17,06,07,987.29
2012,12,17,06,08,987.33
2012,12,17,06,09,987.34
2012,12,17,06,10,987.36
2012,12,17,06,11,987.43
2012,12,17,06,12,987.41
2012,12,17,06,13,987.43
2012,12,17,06,14,987.44
2012,12,17,06,15,987.46
2012,12,17,06,16,987.50
2012,12,17,06,17,987.56
2012,12,17,06,18,987.57
2012,12,17,06,19,987.57
2012,12,17,06,20,987.57
2012,12,17,06,21,987.60
2012,12,17,06,22,987.63
2012,12,17,06,23,987.66
2012,12,17,06,24,987.67
2012,12,17,06,25,987.73
2012,12,17,06,26,987.80
2012,12,17,06,27,987.81
2012,12,17,06,28,987.83
2012,12,17,06,29,987.87
2012,12,17,06,30,987.90
2012,12,17,06,31,987.94
2012,12,17,06,32,988.00
2012,12,17,06,33,988.04
2012,12,17,06,34,988.05
2012,12,17,06,35,988.10
2012,12,17,06,36,988.09
2012,12,17,06,37,988.10
2012,12,17,06,38,988.17
2012,12,17,06,39,988.16
2012,12,17,06,40,988.21
2012,12,17,06,41,988.22
2012,12,17,06,42,988.22
2012,12,17,06,43,988.19
2012,12,17,06,44,988.26
2012,12,17,06,45,988.31
2012,12,17,06,46,988.29
2012,12,17,06,47,988.31
2012,12,17,06,48,988.37
2012,12,17,06,49,988.41
2012,12,17,06,50,988.42
2012,12,17,06,51,988.40
2012,12,17,06,52,988.49
2012,12,17,06,53,988.52
2012,12,17,06,54,988.52
2012,12,17,06,55,988.58
2012,12,17,06,56,988.61
2012,12,17,06,57,988.65
2012,12,17,06,58,988.74
2012,12,17,06,59,988.73
2012,12,17,07,00,988.83
2012,12,17,07,01,988.84
2012,12,17,07,02,988.85
2012,12,17,07,03,988.88
2012,12,17,07,04,988.92
2012,12,17,07,05,988.99
2012,12,17,07,06,989.02
2012,12,17,07,07,989.05
2012,12,17,07,08,989.09
2012,12,17,07,09,989.07
2012,12,17,07,10,989.09
2012,12,17,07,11,989.18
2012,12,17,07,12,989.20
2012,12,17,07,13,989.17
2012,12,17,07,14,989.19
2012,12,17,07,15,989.26
2012,12,17,07,16,989.27
2012,12,17,07,17,989.27
2012,12,17,07,18,989.32
2012,12,17,07,19,989.39
2012,12,17,07,20,989.43
2012,12,17,07,21,989.49
2012,12,17,07,22,989.50
2012,12,17,07,23,989.56
2012,12,17,07,24,989.62
2012,12,17,07,25,989.66
2012,12,17,07,26,989.73
2012,12,17,07,27,989.74
2012,12,17,07,28,989.76
2012,12,17,07,29,989.80
2012,12,17,07,30,989.81
2012,12,17,07,31,989.89
2012,12,17,07,32,989.97
2012,12,17,07,33,990.00
2012,12,17,07,34,990.03
2012,12,17,07,35,990.04
2012,12,17,07,36,990.13
2012,12,17,07,37,990.15
2012,12,17,07,38,990.20
2012,12,17,07,39,990.21
2012,12,17,07,40,990.27
2012,12,17,07,41,990.31
2012,12,17,07,42,990.34
2012,12,17,07,43,990.35
2012,12,17,07,44,990.43
2012,12,17,07,45,990.45
2012,12,17,07,46,990.51
2012,12,17,07,47,990.50
2012,12,17,07,48,990.57
2012,12,17,07,49,990.59
2012,12,17,07,50,990.59
2012,12,17,07,51,990.61
2012,12,17,07,52,990.64
2012,12,17,07,53,990.71
2012,12,17,07,54,990.70
2012,12,17,07,55,990.69
2012,12,17,07,56,990.71
2012,12,17,07,57,990.78
2012,12,17,07,58,990.81
2012,12,17,07,59,990.82
2012,12,17,08,00,990.88
2012,12,17,08,01,990.95
2012,12,17,08,02,990.96
2012,12,17,08,03,991.02
2012,12,17,08,04,991.03
2012,12,17,08,05,991.08
2012,12,17,08,06,991.15
2012,12,17,08,07,991.19
2012,12,17,08,08,991.24
2012,12,17,08,09,991.26
2012,12,17,08,10,991.26
2012,12,17,08,11,991.35
2012,12,17,08,12,991.39
2012,12,17,08,13,991.40
2012,12,17,08,14,991.40
2012,12,17,08,15,991.50
2012,12,17,08,16,991.51
2012,12,17,08,17,991.56
2012,12,17,08,18,991.62
2012,12,17,08,19,991.66
2012,12,17,08,20,991.69
2012,12,17,08,21,991.73
2012,12,17,08,22,991.79
2012,12,17,08,23,991.83
2012,12,17,08,24,991.82
2012,12,17,08,25,991.89
2012,12,17,08,26,991.93
2012,12,17,08,27,991.97
2012,12,17,08,28,992.03
2012,12,17,08,29,992.07
2012,12,17,08,30,992.12
2012,12,17,08,31,992.17
2012,12,17,08,32,992.15
2012,12,17,08,33,992.22
2012,12,17,08,34,992.22
2012,12,17,08,35,992.24
2012,12,17,08,36,992.29
2012,12,17,08,37,992.31
2012,12,17,08,38,992.34
2012,12,17,08,39,992.37
2012,12,17,08,40,992.36
2012,12,17,08,41,992.41
2012,12,17,08,42,992.47
2012,12,17,08,43,992.51
2012,12,17,08,44,992.57
2012,12,17,08,45,992.58
2012,12,17,08,46,992.61
2012,12,17,08,47,992.64
2012,12,17,08,48,992.68
2012,12,17,08,49,992.77
2012,12,17,08,50,992.76
2012,12,17,08,51,992.80
2012,12,17,08,52,992.82
2012,12,17,08,53,992.85
2012,12,17,08,54,992.88
2012,12,17,08,55,992.97
2012,12,17,08,56,992.97
2012,12,17,08,57,992.96
2012,12,17,08,58,993.03
2012,12,17,08,59,993.00
2012,12,17,09,00,993.02
2012,12,17,09,01,993.08
2012,12,17,09,02,993.12
2012,12,17,09,03,993.13
2012,12,17,09,04,993.15
2012,12,17,09,05,993.22
2012,12,17,09,06,993.23
2012,12,17,09,07,993.23
2012,12,17,09,08,993.25
2012,12,17,09,09,993.32
2012,12,17,09,10,993.35
2012,12,17,09,11,993.39
2012,12,17,09,12,993.42
2012,12,17,09,13,993.43
2012,12,17,09,14,993.48
2012,12,17,09,15,993.50
2012,12,17,09,16,993.58
2012,12,17,09,17,993.58
2012,12,17,09,18,993.57
2012,12,17,09,19,993.61
2012,12,17,09,20,993.71
2012,12,17,09,21,993.79
2012,12,17,09,22,993.80
2012,12,17,09,23,993.85
2012,12,17,09,24,993.90
2012,12,17,09,25,994.04
2012,12,17,09,26,994.07
2012,12,17,09,27,994.15
2012,12,17,09,28,994.18
2012,12,17,09,29,994.23
2012,12,17,09,30,994.27
2012,12,17,09,31,994.30
2012,12,17,09,32,994.37
2012,12,17,09,33,994.40
2012,12,17,09,34,994.41
2012,12,17,09,35,994.47
2012,12,17,09,36,994.48
2012,12,17,09,37,994.51
2012,12,17,09,38,994.54
2012,12,17,09,39,994.60
2012,12,17,09,40,994.64
2012,12,17,09,41,994.71
2012,12,17,09,42,994.78
2012,12,17,09,43,994.81
2012,12,17,09,44,994.90
2012,12,17,09,45,994.95
2012,12,17,09,46,994.96
2012,12,17,09,47,995.04
2012,12,17,09,48,995.08
2012,12,17,09,49,995.11
2012,12,17,09,50,995.17
2012,12,17,09,51,995.19
2012,12,17,09,52,995.27
2012,12,17,09,53,995.29
2012,12,17,09,54,995.34
2012,12,17,09,55,995.36
2012,12,17,09,56,995.39
2012,12,17,09,57,995.42
2012,12,17,09,58,995.48
2012,12,17,09,59,995.52
2012,12,17,10,00,995.55
2012,12,17,10,01,995.59
2012,12,17,10,02,995.66
2012,12,17,10,03,995.67
2012,12,17,10,04,995.67
2012,12,17,10,05,995.69
2012,12,17,10,06,995.72
2012,12,17,10,07,995.76
2012,12,17,10,08,995.79
2012,12,17,10,09,995.83
2012,12,17,10,10,995.81
2012,12,17,10,11,995.91
2012,12,17,10,12,995.96
2012,12,17,10,13,995.97
2012,12,17,10,14,996.00
2012,12,17,10,15,996.05
2012,12,17,10,16,996.10
2012,12,17,10,17,996.13
2012,12,17,10,18,996.16
2012,12,17,10,19,996.20
2012,12,17,10,20,996.23
2012,12,17,10,21,996.24
2012,12,17,10,22,996.29
2012,12,17,10,23,996.31
2012,12,17,10,24,996.37
2012,12,17,10,25,996.38
2012,12,17,10,26,996.43
2012,12,17,10,27,996.47
2012,12,17,10,28,996.46
2012,12,17,10,29,996.45
2012,12,17,10,30,996.49
2012,12,17,10,31,996.51
2012,12,17,10,32,996.56
2012,12,17,10,33,996.58
2012,12,17,10,34,996.60
2012,12,17,10,35,996.64
2012,12,17,10,36,996.67
2012,12,17,10,37,996.71
2012,12,17,10,38,996.74
2012,12,17,10,39,996.77
2012,12,17,10,40,996.78
2012,12,17,10,41,996.81
2012,12,17,10,42,996.82
2012,12,17,10,43,996.88
2012,12,17,10,44,996.93
2012,12,17,10,45,996.95
2012,12,17,10,46,996.98
2012,12,17,10,47,997.01
2012,12,17,10,48,997.07
2012,12,17,10,49,997.09
2012,12,17,10,50,997.09
2012,12,17,10,51,997.11
2012,12,17,10,52,997.12
2012,12,17,10,53,997.15
2012,12,17,10,54,997.21
2012,12,17,10,55,997.22
2012,12,17,10,56,997.25
2012,12,17,10,57,997.28
2012,12,17,10,58,997.32
2012,12,17,10,59,997.35
2012,12,17,11,00,997.36
2012,12,17,11,01,997.38
2012,12,17,11,02,997.42
2012,12,17,11,03,997.40
2012,12,17,11,04,997.39
2012,12,17,11,05,997.39
2012,12,17,11,06,997.47
2012,12,17,11,07,997.50
2012,12,17,11,08,997.54
2012,12,17,11,09,997.52
2012,12,17,11,10,997.58
2012,12,17,11,11,997.57
2012,12,17,11,12,997.56
2012,12,17,11,13,997.56
2012,12,17,11,14,997.56
2012,12,17,11,15,997.56
2012,12,17,11,16,997.62
2012,12,17,11,17,997.61
2012,12,17,11,18,997.62
2012,12,17,11,19,997.63
2012,12,17,11,20,997.63
2012,12,17,11,21,997.63
2012,12,17,11,22,997.65
2012,12,17,11,23,997.71
2012,12,17,11,24,997.73
2012,12,17,11,25,997.73
2012,12,17,11,26,997.78
2012,12,17,11,27,997.82
2012,12,17,11,28,997.83
2012,12,17,11,29,997.83
2012,12,17,11,30,997.92
2012,12,17,11,31,997.94
2012,12,17,11,32,997.96
2012,12,17,11,33,997.97
2012,12,17,11,34,997.97
2012,12,17,11,35,998.02
2012,12,17,11,36,997.97
2012,12,17,11,37,997.96
2012,12,17,11,38,997.97
2012,12,17,11,39,998.02
2012,12,17,11,40,998.04
2012,12,17,11,41,998.06
2012,12,17,11,42,998.05
2012,12,17,11,43,998.04
2012,12,17,11,44,998.04
2012,12,17,11,45,998.09
2012,12,17,11,46,998.15
2012,12,17,11,47,998.17
2012,12,17,11,48,998.20
2012,12,17,11,49,998.21
2012,12,17,11,50,998.23
2012,12,17,11,51,998.29
2012,12,17,11,52,998.33
2012,12,17,11,53,998.37
2012,12,17,11,54,998.35
2012,12,17,11,55,998.39
2012,12,17,11,56,998.41
2012,12,17,11,57,998.43
2012,12,17,11,58,998.47
2012,12,17,11,59,998.50
2012,12,17,12,00,998.46
2012,12,17,12,01,998.49
2012,12,17,12,02,998.51
2012,12,17,12,03,998.56
2012,12,17,12,04,998.55
2012,12,17,12,05,998.57
2012,12,17,12,06,998.63
2012,12,17,12,07,998.69
2012,12,17,12,08,998.66
2012,12,17,12,09,998.72
2012,12,17,12,10,998.70
2012,12,17,12,11,998.73
2012,12,17,12,12,998.80
2012,12,17,12,13,998.82
2012,12,17,12,14,998.84
2012,12,17,12,15,998.85
2012,12,17,12,16,998.87
2012,12,17,12,17,998.88
2012,12,17,12,18,998.91
2012,12,17,12,19,998.92
2012,12,17,12,20,998.94
2012,12,17,12,21,999.01
2012,12,17,12,22,999.02
2012,12,17,12,23,999.02
2012,12,17,12,24,999.04
2012,12,17,12,25,999.05
2012,12,17,12,26,999.05
2012,12,17,12,27,999.08
2012,12,17,12,28,999.09
2012,12,17,12,29,999.09
2012,12,17,12,30,999.11
2012,12,17,12,31,999.12
2012,12,17,12,32,999.12
2012,12,17,12,33,999.14
2012,12,17,12,34,999.18
2012,12,17,12,35,999.16
2012,12,17,12,36,999.18
2012,12,17,12,37,999.16
2012,12,17,12,38,999.20
2012,12,17,12,39,999.20
2012,12,17,12,40,999.21
2012,12,17,12,41,999.25
2012,12,17,12,42,999.28
2012,12,17,12,43,999.29
2012,12,17,12,44,999.29
2012,12,17,12,45,999.29
2012,12,17,12,46,999.31
2012,12,17,12,47,999.32
2012,12,17,12,48,999.35
2012,12,17,12,49,999.33
2012,12,17,12,50,999.35
2012,12,17,12,51,999.38
2012,12,17,12,52,999.39
2012,12,17,12,53,999.37
2012,12,17,12,54,999.38
2012,12,17,12,55,999.42
2012,12,17,12,56,999.43
2012,12,17,12,57,999.43
2012,12,17,12,58,999.45
2012,12,17,12,59,999.48
2012,12,17,13,00,999.49
2012,12,17,13,01,999.54
2012,12,17,13,02,999.56
2012,12,17,13,03,999.54
2012,12,17,13,04,999.53
2012,12,17,13,05,999.55
2012,12,17,13,06,999.58
2012,12,17,13,07,999.62
2012,12,17,13,08,999.63
2012,12,17,13,09,999.68
2012,12,17,13,10,999.70
2012,12,17,13,11,999.67
2012,12,17,13,12,999.66
2012,12,17,13,13,999.66
2012,12,17,13,14,999.66
2012,12,17,13,15,999.66
2012,12,17,13,16,999.66
2012,12,17,13,17,999.72
2012,12,17,13,18,999.73
2012,12,17,13,19,999.73
2012,12,17,13,20,999.73
2012,12,17,13,21,999.78
2012,12,17,13,22,999.77
2012,12,17,13,23,999.81
2012,12,17,13,24,999.83
2012,12,17,13,25,999.83
2012,12,17,13,26,999.83
2012,12,17,13,27,999.83
2012,12,17,13,28,999.83
2012,12,17,13,29,999.83
2012,12,17,13,30,999.83
2012,12,17,13,31,999.86
2012,12,17,13,32,999.89
2012,12,17,13,33,999.92
2012,12,17,13,34,999.91
2012,12,17,13,35,999.95
2012,12,17,13,36,999.97
2012,12,17,13,37,999.94
2012,12,17,13,38,999.91
2012,12,17,13,39,999.95
2012,12,17,13,40,999.97
2012,12,17,13,41,999.99
2012,12,17,13,42,1000.02
2012,12,17,13,43,1000.03
2012,12,17,13,44,1000.06
2012,12,17,13,45,1000.09
2012,12,17,13,46,1000.08
2012,12,17,13,47,1000.07
2012,12,17,13,48,1000.07
2012,12,17,13,49,1000.07
2012,12,17,13,50,1000.07
2012,12,17,13,51,1000.07
2012,12,17,13,52,1000.09
2012,12,17,13,53,1000.15
2012,12,17,13,54,1000.15
2012,12,17,13,55,1000.16
2012,12,17,13,56,1000.23
2012,12,17,13,57,1000.24
2012,12,17,13,58,1000.24
2012,12,17,13,59,1000.26
2012,12,17,14,00,1000.27
2012,12,17,14,01,1000.27
2012,12,17,14,02,1000.30
2012,12,17,14,03,1000.39
2012,12,17,14,04,1000.41
2012,12,17,14,05,1000.41
2012,12,17,14,06,1000.41
2012,12,17,14,07,1000.46
2012,12,17,14,08,1000.50
2012,12,17,14,09,1000.49
2012,12,17,14,10,1000.50
2012,12,17,14,11,1000.56
2012,12,17,14,12,1000.60
2012,12,17,14,13,1000.63
2012,12,17,14,14,1000.64
2012,12,17,14,15,1000.69
2012,12,17,14,16,1000.74
2012,12,17,14,17,1000.75
2012,12,17,14,18,1000.77
2012,12,17,14,19,1000.78
2012,12,17,14,20,1000.78
2012,12,17,14,21,1000.78
2012,12,17,14,22,1000.78
2012,12,17,14,23,1000.80
2012,12,17,14,24,1000.84
2012,12,17,14,25,1000.80
2012,12,17,14,26,1000.78
2012,12,17,14,27,1000.80
2012,12,17,14,28,1000.81
2012,12,17,14,29,1000.81
2012,12,17,14,30,1000.79
2012,12,17,14,31,1000.83
2012,12,17,14,32,1000.87
2012,12,17,14,33,1000.88
2012,12,17,14,34,1000.93
2012,12,17,14,35,1000.95
2012,12,17,14,36,1001.03
2012,12,17,14,37,1001.07
2012,12,17,14,38,1001.13
2012,12,17,14,39,1001.15
2012,12,17,14,40,1001.18
2012,12,17,14,41,1001.19
2012,12,17,14,42,1001.19
2012,12,17,14,43,1001.19
2012,12,17,14,44,1001.21
2012,12,17,14,45,1001.24
2012,12,17,14,46,1001.28
2012,12,17,14,47,1001.31
2012,12,17,14,48,1001.32
2012,12,17,14,49,1001.32
2012,12,17,14,50,1001.32
2012,12,17,14,51,1001.30
2012,12,17,14,52,1001.29
2012,12,17,14,53,1001.34
2012,12,17,14,54,1001.33
2012,12,17,14,55,1001.37
2012,12,17,14,56,1001.47
2012,12,17,14,57,1001.47
2012,12,17,14,58,1001.46
2012,12,17,14,59,1001.48
2012,12,17,15,00,1001.51
2012,12,17,15,01,1001.55
2012,12,17,15,02,1001.61
2012,12,17,15,03,1001.63
2012,12,17,15,04,1001.63
2012,12,17,15,05,1001.63
2012,12,17,15,06,1001.65
2012,12,17,15,07,1001.68
2012,12,17,15,08,1001.72
2012,12,17,15,09,1001.73
2012,12,17,15,10,1001.75
2012,12,17,15,11,1001.79
2012,12,17,15,12,1001.80
2012,12,17,15,13,1001.80
2012,12,17,15,14,1001.82
2012,12,17,15,15,1001.83
2012,12,17,15,16,1001.83
2012,12,17,15,17,1001.85
2012,12,17,15,18,1001.89
2012,12,17,15,19,1001.92
2012,12,17,15,20,1001.93
2012,12,17,15,21,1001.93
2012,12,17,15,22,1001.96
2012,12,17,15,23,1001.97
2012,12,17,15,24,1002.02
2012,12,17,15,25,1002.06
2012,12,17,15,26,1002.04
2012,12,17,15,27,1002.11
2012,12,17,15,28,1002.13
2012,12,17,15,29,1002.16
2012,12,17,15,30,1002.17
2012,12,17,15,31,1002.14
2012,12,17,15,32,1002.18
2012,12,17,15,33,1002.20
2012,12,17,15,34,1002.25
2012,12,17,15,35,1002.22
2012,12,17,15,36,1002.25
2012,12,17,15,37,1002.27
2012,12,17,15,38,1002.27
2012,12,17,15,39,1002.27
2012,12,17,15,40,1002.29
2012,12,17,15,41,1002.30
2012,12,17,15,42,1002.30
2012,12,17,15,43,1002.33
2012,12,17,15,44,1002.29
2012,12,17,15,45,1002.29
2012,12,17,15,46,1002.26
2012,12,17,15,47,1002.28
2012,12,17,15,48,1002.28
2012,12,17,15,49,1002.25
2012,12,17,15,50,1002.24
2012,12,17,15,51,1002.19
2012,12,17,15,52,1002.17
2012,12,17,15,53,1002.19
2012,12,17,15,54,1002.20
2012,12,17,15,55,1002.13
2012,12,17,15,56,1002.15
2012,12,17,15,57,1002.19
2012,12,17,15,58,1002.20
2012,12,17,15,59,1002.23
2012,12,17,16,00,1002.28
2012,12,17,16,01,1002.26
2012,12,17,16,02,1002.24
2012,12,17,16,03,1002.26
2012,12,17,16,04,1002.29
2012,12,17,16,05,1002.33
2012,12,17,16,06,1002.39
2012,12,17,16,07,1002.41
2012,12,17,16,08,1002.43
2012,12,17,16,09,1002.42
2012,12,17,16,10,1002.46
2012,12,17,16,11,1002.52
2012,12,17,16,12,1002.56
2012,12,17,16,13,1002.60
2012,12,17,16,14,1002.63
2012,12,17,16,15,1002.64
2012,12,17,16,16,1002.72
2012,12,17,16,17,1002.72
2012,12,17,16,18,1002.78
2012,12,17,16,19,1002.84
2012,12,17,16,20,1002.87
2012,12,17,16,21,1002.93
2012,12,17,16,22,1002.95
2012,12,17,16,23,1002.97
2012,12,17,16,24,1002.96
2012,12,17,16,25,1002.99
2012,12,17,16,26,1003.01
2012,12,17,16,27,1003.06
2012,12,17,16,28,1003.08
2012,12,17,16,29,1003.08
2012,12,17,16,30,1003.13
2012,12,17,16,31,1003.10